Location: Sevilla
(37.3933°N, 5.9839°W)
Time: 02:46:40
(UTC+02:00)

Vanguard 3 - Pass Details

Date: 25 June 2024
Orbit: 508 x 3230 km, 33.3° (Epoch: 24 July)

Event Time Altitude Azimuth Distance (km) Brightness Sun altitude
Rises 09:48:32 0° 235° (SW) 6,645 11.3 29.7°
Reaches altitude 10° 09:53:41 10° 231° (SW) 5,278 10.9 30.7°
Maximum altitude 10:07:01 48° 163° (SSE) 2,156 9.8 33.4°
Drops below altitude 10° 10:14:46 10° 92° (E) 3,141 11.6 34.9°
Sets 10:17:03 0° 86° (E) 3,831 11.6 35.4°
